| time (UTC) | temp F | wind direction | speed MPH | gust MPH | rain 1hr in | rain 24hr in | rain mn in | humidity % | barometer mb |
| 20260904060036 | 61 | 221 | 3.0 | 10.0 | 0.00 | 0.00 | 0.00 | 55 | 1017.5 |
| 20260904055529 | 61 | 268 | 3.0 | 10.0 | 0.00 | 0.00 | 0.00 | 55 | 1017.5 |
| 20260904055024 | 62 | 244 | 2.0 | 9.0 | 0.00 | 0.00 | 0.00 | 54 | 1017.6 |
| 20260904054518 | 62 | 237 | 3.0 | 9.0 | 0.00 | 0.00 | 0.00 | 55 | 1017.6 |
| 20260904054013 | 61 | 258 | 3.0 | 7.0 | 0.00 | 0.00 | 0.00 | 57 | 1017.5 |
| 20260904053505 | 60 | 246 | 3.0 | 7.0 | 0.00 | 0.00 | 0.00 | 57 | 1017.6 |
| 20260904053000 | 59 | 237 | 3.0 | 7.0 | 0.00 | 0.00 | 0.00 | 58 | 1017.6 |
| 20260904052453 | 59 | 242 | 2.0 | 7.0 | 0.00 | 0.00 | 0.00 | 57 | 1017.6 |
| 20260904051950 | 60 | 268 | 2.0 | 8.0 | 0.00 | 0.00 | 0.00 | 56 | 1017.6 |
| 20260904051438 | 60 | 270 | 2.0 | 8.0 | 0.00 | 0.00 | 0.00 | 55 | 1017.7 |
| 20260904050932 | 60 | 235 | 2.0 | 8.0 | 0.00 | 0.00 | 0.00 | 55 | 1017.8 |
| 20260904050426 | 60 | 306 | 2.0 | 8.0 | 0.00 | 0.00 | 0.00 | 56 | 1017.7 |
| 20260904045923 | 60 | 256 | 2.0 | 9.0 | 0.00 | 0.00 | 0.00 | 57 | 1017.7 |
| 20260904045420 | 60 | 281 | 2.0 | 9.0 | 0.00 | 0.00 | 0.00 | 56 | 1017.7 |
| 20260904044920 | 60 | 254 | 2.0 | 6.0 | 0.00 | 0.00 | 0.00 | 57 | 1017.7 |
| 20260904044420 | 60 | 271 | 2.0 | 6.0 | 0.00 | 0.00 | 0.00 | 56 | 1017.6 |
| 20260904043920 | 60 | 303 | 2.0 | 8.0 | 0.00 | 0.00 | 0.00 | 56 | 1017.4 |
| 20260904043420 | 60 | 273 | 3.0 | 9.0 | 0.00 | 0.00 | 0.00 | 56 | 1017.4 |
| 20260904042920 | 60 | 247 | 3.0 | 9.0 | 0.00 | 0.00 | 0.00 | 55 | 1017.5 |
| 20260904042420 | 60 | 250 | 3.0 | 10.0 | 0.00 | 0.00 | 0.00 | 55 | 1017.4 |
| 20260904041921 | 60 | 291 | 3.0 | 10.0 | 0.00 | 0.00 | 0.00 | 54 | 1017.4 |
| 20260904041420 | 61 | 251 | 3.0 | 10.0 | 0.00 | 0.00 | 0.00 | 53 | 1017.3 |
| 20260904040920 | 61 | 321 | 3.0 | 10.0 | 0.00 | 0.00 | 0.00 | 53 | 1017.3 |
| 20260904040418 | 61 | 279 | 3.0 | 10.0 | 0.00 | 0.00 | 0.00 | 52 | 1017.3 |
| 20260904035918 | 62 | 223 | 3.0 | 14.0 | 0.00 | 0.00 | 0.00 | 50 | 1017.4 |
| 20260904035419 | 63 | 250 | 3.0 | 14.0 | 0.00 | 0.00 | 0.00 | 51 | 1017.4 |
| 20260904035134 | 63 | 310 | 3.0 | 9.0 | 0.00 | 0.00 | 0.00 | 50 | 1017.6 |
| 20260904034416 | 62 | 312 | 4.0 | 11.0 | 0.00 | 0.00 | 0.00 | 52 | 1017.2 |
| 20260904033916 | 63 | 308 | 3.0 | 11.0 | 0.00 | 0.00 | 0.00 | 49 | 1017.2 |
| 20260904033416 | 63 | 289 | 2.0 | 11.0 | 0.00 | 0.00 | 0.00 | 50 | 1017.3 |
| 20260904032914 | 63 | 232 | 3.0 | 11.0 | 0.00 | 0.00 | 0.00 | 49 | 1017.3 |
| 20260904032631 | 63 | 297 | 2.0 | 8.0 | 0.00 | 0.00 | 0.00 | 50 | 1017.5 |
| 20260904031914 | 63 | 243 | 2.0 | 8.0 | 0.00 | 0.00 | 0.00 | 49 | 1017.5 |
| 20260904031413 | 63 | 343 | 3.0 | 9.0 | 0.00 | 0.00 | 0.00 | 48 | 1017.6 |
| 20260904030913 | 63 | 325 | 3.0 | 9.0 | 0.00 | 0.00 | 0.00 | 48 | 1017.7 |
| 20260904030412 | 63 | 260 | 2.0 | 7.0 | 0.00 | 0.00 | 0.00 | 48 | 1017.8 |
| 20260904025912 | 63 | 282 | 2.0 | 7.0 | 0.00 | 0.00 | 0.00 | 48 | 1017.9 |
| 20260904025412 | 63 | 247 | 2.0 | 8.0 | 0.00 | 0.00 | 0.00 | 49 | 1017.9 |
| 20260904024910 | 62 | 265 | 3.0 | 10.0 | 0.00 | 0.00 | 0.00 | 50 | 1018.2 |
| 20260904024900 | 62 | 300 | 3.0 | 10.0 | 0.00 | 0.00 | 0.00 | 51 | 1018.6 |
| 20260904024130 | 62 | 287 | 3.0 | 12.0 | 0.00 | 0.00 | 0.00 | 50 | 1018.7 |
| 20260904023421 | 62 | 340 | 4.0 | 15.0 | 0.00 | 0.00 | 0.00 | 49 | 1018.8 |
| 20260904022909 | 61 | 333 | 4.0 | 15.0 | 0.00 | 0.00 | 0.00 | 51 | 1018.7 |
| 20260904022850 | 62 | 289 | 4.0 | 11.0 | 0.00 | 0.00 | 0.00 | 51 | 1018.9 |
| 20260904021908 | 62 | 289 | 4.0 | 12.0 | 0.00 | 0.00 | 0.00 | 53 | 1019.1 |
| 20260904021408 | 61 | 292 | 5.0 | 12.0 | 0.00 | 0.00 | 0.00 | 53 | 1019.3 |
| 20260904021127 | 60 | 18 | 5.0 | 12.0 | 0.00 | 0.00 | 0.00 | 52 | 1019.3 |
| 20260904020408 | 61 | 355 | 4.0 | 12.0 | 0.00 | 0.00 | 0.00 | 54 | 1019.4 |
| 20260904015908 | 61 | 232 | 3.0 | 12.0 | 0.00 | 0.00 | 0.00 | 56 | 1019.4 |
| 20260904015408 | 61 | 305 | 3.0 | 12.0 | 0.00 | 0.00 | 0.00 | 54 | 1019.6 |
| 20260904015128 | 61 | 333 | 4.0 | 12.0 | 0.00 | 0.00 | 0.00 | 56 | 1019.6 |
| 20260904014408 | 61 | 22 | 4.0 | 12.0 | 0.00 | 0.00 | 0.00 | 55 | 1019.7 |
| 20260904013909 | 61 | 256 | 3.0 | 11.0 | 0.00 | 0.00 | 0.00 | 54 | 1019.6 |
| 20260904013403 | 61 | 324 | 3.0 | 9.0 | 0.00 | 0.00 | 0.00 | 55 | 1019.5 |
| 20260904012904 | 61 | 287 | 3.0 | 8.0 | 0.00 | 0.00 | 0.00 | 60 | 1019.7 |
| 20260904012404 | 60 | 293 | 2.0 | 7.0 | 0.00 | 0.00 | 0.00 | 58 | 1019.7 |
| 20260904011903 | 59 | 310 | 2.0 | 7.0 | 0.00 | 0.00 | 0.00 | 58 | 1019.8 |
| 20260904011404 | 60 | 327 | 2.0 | 9.0 | 0.00 | 0.00 | 0.00 | 60 | 1019.8 |
| 20260904010903 | 60 | 273 | 2.0 | 9.0 | 0.00 | 0.00 | 0.00 | 59 | 1019.8 |
| 20260904010404 | 60 | 17 | 2.0 | 6.0 | 0.00 | 0.00 | 0.00 | 63 | 1019.9 |
| 20260904005904 | 60 | 316 | 2.0 | 7.0 | 0.00 | 0.00 | 0.00 | 61 | 1020.1 |
| 20260904005404 | 60 | 324 | 2.0 | 7.0 | 0.00 | 0.00 | 0.00 | 64 | 1020.1 |
| 20260904004903 | 59 | 161 | 2.0 | 6.0 | 0.00 | 0.00 | 0.00 | 64 | 1020.1 |
| 20260904004404 | 59 | 287 | 1.0 | 6.0 | 0.00 | 0.00 | 0.00 | 66 | 1020.2 |
| 20260904003903 | 59 | 37 | 2.0 | 9.0 | 0.00 | 0.00 | 0.00 | 68 | 1020.2 |
| 20260904003630 | 58 | 260 | 2.0 | 9.0 | 0.00 | 0.00 | 0.00 | 66 | 1020.1 |
| 20260904003125 | 58 | 305 | 1.0 | 7.0 | 0.00 | 0.00 | 0.00 | 68 | 1020.3 |
| 20260904002402 | 58 | 313 | 1.0 | 7.0 | 0.00 | 0.00 | 0.00 | 71 | 1020.3 |
| 20260904001900 | 57 | 289 | 2.0 | 8.0 | 0.00 | 0.00 | 0.00 | 72 | 1020.3 |
| 20260904001357 | 57 | 36 | 2.0 | 8.0 | 0.00 | 0.00 | 0.00 | 73 | 1020.4 |
| 20260904000858 | 56 | 34 | 2.0 | 8.0 | 0.00 | 0.00 | 0.00 | 75 | 1020.6 |
| 20260904000358 | 56 | 35 | 2.0 | 8.0 | 0.00 | 0.00 | 0.00 | 74 | 1020.7 |
| 20260903235857 | 56 | 348 | 1.0 | 7.0 | 0.00 | 0.00 | 0.00 | 77 | 1020.7 |
| 20260903235358 | 56 | 289 | 1.0 | 4.0 | 0.00 | 0.00 | 0.00 | 76 | 1020.8 |
| 20260903234855 | 55 | 26 | 2.0 | 9.0 | 0.00 | 0.00 | 0.00 | 76 | 1020.9 |
| 20260903234357 | 55 | 339 | 3.0 | 9.0 | 0.00 | 0.00 | 0.00 | 78 | 1021.0 |
| 20260903233850 | 55 | 37 | 3.0 | 7.0 | 0.00 | 0.00 | 0.00 | 81 | 1021.0 |
| 20260903233831 | 54 | 83 | 3.0 | 8.0 | 0.00 | 0.00 | 0.00 | 80 | 1021.0 |
| 20260903232840 | 54 | 313 | 3.0 | 8.0 | 0.00 | 0.00 | 0.00 | 81 | 1021.1 |
| 20260903232332 | 54 | 14 | 2.0 | 8.0 | 0.00 | 0.00 | 0.00 | 80 | 1021.1 |
| 20260903232106 | 54 | 26 | 2.0 | 5.0 | 0.00 | 0.00 | 0.00 | 80 | 1021.1 |
| 20260903231540 | 53 | 24 | 1.0 | 5.0 | 0.00 | 0.00 | 0.00 | 81 | 1021.0 |
| 20260903230812 | 53 | 31 | 0.0 | 4.0 | 0.00 | 0.00 | 0.00 | 83 | 1021.0 |
| 20260903230307 | 52 | 308 | 1.0 | 3.0 | 0.00 | 0.00 | 0.00 | 84 | 1021.0 |
| 20260903225801 | 52 | 315 | 1.0 | 5.0 | 0.00 | 0.00 | 0.00 | 84 | 1021.1 |
| 20260903225517 | 51 | 55 | 1.0 | 5.0 | 0.00 | 0.00 | 0.00 | 84 | 1021.0 |
| 20260903224751 | 51 | 48 | 1.0 | 3.0 | 0.00 | 0.01 | 0.00 | 87 | 1021.1 |
| 20260903224247 | 50 | 56 | 0.0 | 3.0 | 0.00 | 0.01 | 0.00 | 87 | 1021.0 |
| 20260903224000 | 50 | 327 | 0.0 | 3.0 | 0.00 | 0.01 | 0.00 | 88 | 1021.0 |
| 20260903223229 | 49 | 39 | 1.0 | 3.0 | 0.00 | 0.01 | 0.00 | 88 | 1021.0 |
| 20260903222723 | 49 | 275 | 0.0 | 3.0 | 0.00 | 0.01 | 0.00 | 89 | 1021.0 |
| 20260903222217 | 49 | 5 | 0.0 | 3.0 | 0.00 | 0.01 | 0.00 | 90 | 1021.0 |
| 20260903221711 | 48 | 310 | 0.0 | 3.0 | 0.00 | 0.01 | 0.00 | 90 | 1021.0 |
| 20260903221205 | 48 | 36 | 0.0 | 2.0 | 0.00 | 0.01 | 0.00 | 90 | 1020.9 |
| 20260903220659 | 47 | 36 | 0.0 | 0.0 | 0.00 | 0.01 | 0.00 | 90 | 1021.0 |
| 20260903220418 | 47 | 36 | 0.0 | 0.0 | 0.00 | 0.01 | 0.00 | 90 | 1020.9 |
| 20260903215649 | 47 | 36 | 0.0 | 0.0 | 0.00 | 0.01 | 0.00 | 90 | 1020.8 |
| 20260903215144 | 47 | 36 | 0.0 | 0.0 | 0.00 | 0.01 | 0.00 | 90 | 1020.9 |
| 20260903215125 | 47 | 36 | 0.0 | 0.0 | 0.00 | 0.01 | 0.00 | 90 | 1020.8 |
| 20260903214129 | 47 | 36 | 0.0 | 0.0 | 0.00 | 0.01 | 0.00 | 91 | 1020.9 |
| 20260903213625 | 47 | 36 | 0.0 | 0.0 | 0.00 | 0.01 | 0.00 | 92 | 1020.7 |
| 20260903213343 | 46 | 36 | 0.0 | 0.0 | 0.00 | 0.01 | 0.00 | 92 | 1020.7 |
| 20260903212612 | 46 | 36 | 0.0 | 0.0 | 0.00 | 0.01 | 0.00 | 93 | 1020.6 |
| 20260903212105 | 45 | 36 | 0.0 | 0.0 | 0.00 | 0.01 | 0.00 | 93 | 1020.6 |
| 20260903211559 | 45 | 36 | 0.0 | 0.0 | 0.00 | 0.01 | 0.00 | 92 | 1020.5 |
| 20260903211055 | 45 | 36 | 0.0 | 0.0 | 0.00 | 0.01 | 0.00 | 92 | 1020.5 |
| 20260903210549 | 45 | 36 | 0.0 | 0.0 | 0.00 | 0.01 | 0.00 | 92 | 1020.5 |
| 20260903210041 | 45 | 36 | 0.0 | 0.0 | 0.00 | 0.01 | 0.00 | 93 | 1020.5 |
| 20260903205535 | 44 | 36 | 0.0 | 1.0 | 0.00 | 0.01 | 0.00 | 93 | 1020.4 |
| 20260903205029 | 44 | 35 | 0.0 | 1.0 | 0.00 | 0.01 | 0.00 | 92 | 1020.4 |
| 20260903204524 | 44 | 48 | 0.0 | 0.0 | 0.00 | 0.01 | 0.00 | 91 | 1020.3 |
| 20260903204017 | 44 | 48 | 0.0 | 0.0 | 0.00 | 0.01 | 0.00 | 92 | 1020.3 |
| 20260903203511 | 44 | 47 | 0.0 | 0.0 | 0.00 | 0.01 | 0.00 | 91 | 1020.3 |
| 20260903203005 | 44 | 48 | 0.0 | 0.0 | 0.00 | 0.01 | 0.00 | 91 | 1020.3 |
| 20260903202459 | 44 | 48 | 0.0 | 0.0 | 0.00 | 0.01 | 0.00 | 91 | 1020.2 |
| 20260903201954 | 44 | 48 | 0.0 | 0.0 | 0.00 | 0.01 | 0.00 | 90 | 1020.2 |
| 20260903201447 | 44 | 48 | 0.0 | 0.0 | 0.00 | 0.01 | 0.00 | 90 | 1020.2 |
| 20260903200950 | 44 | 47 | 0.0 | 0.0 | 0.00 | 0.01 | 0.00 | 90 | 1019.9 |
| 20260903200927 | 44 | 48 | 0.0 | 0.0 | 0.00 | 0.02 | 0.00 | 89 | 1019.9 |
| 20260903195931 | 44 | 47 | 0.0 | 0.0 | 0.00 | 0.02 | 0.00 | 89 | 1019.9 |
| 20260903195526 | 45 | 47 | 0.0 | 0.0 | 0.00 | 0.02 | 0.00 | 89 | 1019.9 |
| 20260903194417 | 45 | 48 | 0.0 | 0.0 | 0.00 | 0.02 | 0.00 | 89 | 1019.8 |
| 20260903193905 | 45 | 48 | 0.0 | 0.0 | 0.00 | 0.02 | 0.00 | 88 | 1019.7 |
| 20260903193359 | 45 | 48 | 0.0 | 0.0 | 0.00 | 0.02 | 0.00 | 88 | 1019.6 |
| 20260903192854 | 45 | 47 | 0.0 | 0.0 | 0.00 | 0.02 | 0.00 | 87 | 1019.5 |
| 20260903192349 | 45 | 48 | 0.0 | 0.0 | 0.00 | 0.02 | 0.00 | 87 | 1019.4 |
| 20260903191847 | 45 | 46 | 0.0 | 0.0 | 0.00 | 0.02 | 0.00 | 88 | 1019.4 |
| 20260903191554 | 45 | 46 | 0.0 | 0.0 | 0.00 | 0.02 | 0.00 | 86 | 1019.4 |
| 20260903190829 | 46 | 47 | 0.0 | 0.0 | 0.00 | 0.02 | 0.00 | 86 | 1019.4 |
| 20260903190324 | 46 | 46 | 0.0 | 0.0 | 0.00 | 0.03 | 0.00 | 86 | 1019.3 |
| 20260903185817 | 46 | 46 | 0.0 | 2.0 | 0.00 | 0.03 | 0.00 | 87 | 1019.3 |
| 20260903185313 | 46 | 43 | 0.0 | 4.0 | 0.00 | 0.03 | 0.00 | 87 | 1019.3 |
| 20260903184805 | 46 | 40 | 1.0 | 4.0 | 0.00 | 0.03 | 0.00 | 88 | 1019.3 |
| 20260903184259 | 46 | 44 | 1.0 | 4.0 | 0.00 | 0.03 | 0.00 | 89 | 1019.2 |
| 20260903184014 | 45 | 349 | 0.0 | 2.0 | 0.00 | 0.03 | 0.00 | 89 | 1019.2 |
| 20260903183247 | 45 | 24 | 0.0 | 2.0 | 0.00 | 0.03 | 0.00 | 89 | 1019.1 |
| 20260903182744 | 45 | 42 | 0.0 | 2.0 | 0.00 | 0.03 | 0.00 | 90 | 1019.1 |
| 20260903182236 | 44 | 50 | 0.0 | 0.0 | 0.00 | 0.03 | 0.00 | 90 | 1019.1 |
| 20260903181731 | 44 | 50 | 0.0 | 0.0 | 0.00 | 0.03 | 0.00 | 89 | 1019.1 |
| 20260903181223 | 44 | 50 | 0.0 | 0.0 | 0.00 | 0.03 | 0.00 | 88 | 1019.1 |
| 20260903180717 | 45 | 50 | 0.0 | 0.0 | 0.00 | 0.04 | 0.00 | 88 | 1019.1 |
| 20260903180435 | 45 | 50 | 0.0 | 0.0 | 0.00 | 0.06 | 0.00 | 87 | 1019.0 |
| 20260903180149 | 46 | 48 | 0.0 | 0.0 | 0.00 | 0.06 | 0.00 | 87 | 1019.0 |
| 20260903175419 | 46 | 48 | 0.0 | 0.0 | 0.00 | 0.06 | 0.00 | 87 | 1018.9 |
| 20260903174917 | 46 | 48 | 0.0 | 0.0 | 0.00 | 0.06 | 0.00 | 87 | 1018.8 |
| 20260903174147 | 46 | 48 | 0.0 | 2.0 | 0.00 | 0.06 | 0.00 | 86 | 1018.8 |
| 20260903173642 | 46 | 23 | 0.0 | 2.0 | 0.00 | 0.07 | 0.00 | 85 | 1018.8 |
| 20260903173135 | 47 | 34 | 1.0 | 2.0 | 0.00 | 0.08 | 0.00 | 84 | 1018.7 |
| 20260903172854 | 47 | 37 | 1.0 | 5.0 | 0.00 | 0.08 | 0.00 | 83 | 1018.6 |
| 20260903172132 | 47 | 43 | 1.0 | 5.0 | 0.00 | 0.08 | 0.00 | 84 | 1018.6 |
| 20260903171631 | 47 | 33 | 0.0 | 4.0 | 0.00 | 0.08 | 0.00 | 84 | 1018.5 |
| 20260903171128 | 46 | 43 | 0.0 | 7.0 | 0.00 | 0.08 | 0.00 | 84 | 1018.5 |
| 20260903170627 | 46 | 29 | 0.0 | 7.0 | 0.00 | 0.08 | 0.00 | 85 | 1018.5 |
| 20260903170125 | 45 | 43 | 0.0 | 2.0 | 0.00 | 0.08 | 0.00 | 86 | 1018.5 |
| 20260903165846 | 45 | 43 | 0.0 | 2.0 | 0.00 | 0.08 | 0.00 | 86 | 1018.5 |
| 20260903165124 | 46 | 27 | 0.0 | 0.0 | 0.00 | 0.09 | 0.00 | 84 | 1018.4 |
| 20260903164624 | 46 | 27 | 0.0 | 0.0 | 0.00 | 0.09 | 0.00 | 84 | 1018.5 |
| 20260903164123 | 46 | 28 | 0.0 | 0.0 | 0.00 | 0.09 | 0.00 | 84 | 1018.4 |
| 20260903163620 | 46 | 28 | 0.0 | 0.0 | 0.00 | 0.09 | 0.00 | 83 | 1018.4 |
| 20260903163346 | 47 | 28 | 0.0 | 0.0 | 0.00 | 0.09 | 0.00 | 82 | 1018.5 |
| 20260903162845 | 47 | 28 | 0.0 | 0.0 | 0.00 | 0.09 | 0.00 | 82 | 1018.5 |
| 20260903162121 | 47 | 27 | 0.0 | 0.0 | 0.00 | 0.09 | 0.00 | 82 | 1018.5 |
| 20260903161618 | 47 | 27 | 0.0 | 0.0 | 0.00 | 0.09 | 0.00 | 81 | 1018.5 |
| 20260903161117 | 48 | 23 | 0.0 | 2.0 | 0.00 | 0.09 | 0.00 | 80 | 1018.6 |
| 20260903160617 | 48 | 22 | 0.0 | 2.0 | 0.00 | 0.10 | 0.00 | 80 | 1018.6 |
| 20260903160117 | 48 | 31 | 1.0 | 5.0 | 0.00 | 0.11 | 0.00 | 80 | 1018.6 |
| 20260903155617 | 48 | 25 | 2.0 | 5.0 | 0.00 | 0.11 | 0.00 | 80 | 1018.7 |
| 20260903155117 | 48 | 35 | 1.0 | 5.0 | 0.00 | 0.11 | 0.00 | 79 | 1018.7 |
| 20260903154617 | 48 | 16 | 1.0 | 4.0 | 0.00 | 0.11 | 0.00 | 78 | 1018.8 |
| 20260903154343 | 49 | 33 | 0.0 | 4.0 | 0.00 | 0.12 | 0.00 | 77 | 1018.9 |
| 20260903153842 | 49 | 45 | 0.0 | 2.0 | 0.00 | 0.13 | 0.00 | 74 | 1018.9 |
| 20260903153117 | 49 | 22 | 0.0 | 3.0 | 0.00 | 0.13 | 0.00 | 73 | 1018.9 |
| 20260903152616 | 50 | 348 | 0.0 | 3.0 | 0.00 | 0.13 | 0.00 | 72 | 1018.8 |
| 20260903152117 | 50 | 332 | 0.0 | 1.0 | 0.00 | 0.13 | 0.00 | 72 | 1018.8 |
| 20260903151841 | 50 | 344 | 0.0 | 1.0 | 0.00 | 0.13 | 0.00 | 71 | 1018.8 |
| 20260903151337 | 51 | 320 | 0.0 | 4.0 | 0.00 | 0.13 | 0.00 | 71 | 1018.9 |
| 20260903150835 | 51 | 354 | 0.0 | 4.0 | 0.00 | 0.13 | 0.00 | 70 | 1018.9 |
| 20260903150116 | 51 | 11 | 1.0 | 3.0 | 0.00 | 0.13 | 0.00 | 70 | 1018.9 |
| 20260903145617 | 51 | 29 | 2.0 | 5.0 | 0.00 | 0.13 | 0.00 | 69 | 1019.0 |
| 20260903145115 | 51 | 8 | 1.0 | 5.0 | 0.00 | 0.13 | 0.00 | 69 | 1019.0 |
| 20260903144611 | 50 | 43 | 1.0 | 4.0 | 0.00 | 0.13 | 0.00 | 69 | 1019.0 |
| 20260903144109 | 50 | 37 | 0.0 | 3.0 | 0.00 | 0.13 | 0.00 | 68 | 1019.0 |
| 20260903143608 | 51 | 30 | 0.0 | 3.0 | 0.00 | 0.13 | 0.00 | 67 | 1019.0 |
| 20260903143107 | 51 | 46 | 0.0 | 2.0 | 0.00 | 0.13 | 0.00 | 65 | 1018.9 |
| 20260903142604 | 51 | 72 | 0.0 | 2.0 | 0.00 | 0.13 | 0.00 | 64 | 1018.8 |
| 20260903142103 | 52 | 283 | 0.0 | 5.0 | 0.00 | 0.13 | 0.00 | 63 | 1018.8 |
| 20260903141602 | 52 | 275 | 1.0 | 10.0 | 0.00 | 0.13 | 0.00 | 64 | 1018.7 |
| 20260903141103 | 52 | 261 | 2.0 | 10.0 | 0.00 | 0.13 | 0.00 | 63 | 1018.8 |
| 20260903140602 | 52 | 255 | 2.0 | 10.0 | 0.00 | 0.13 | 0.00 | 64 | 1018.9 |
| 20260903140325 | 52 | 306 | 2.0 | 10.0 | 0.00 | 0.13 | 0.00 | 64 | 1018.9 |
| 20260903135601 | 51 | 253 | 2.0 | 8.0 | 0.00 | 0.13 | 0.13 | 66 | 1018.8 |
| 20260903135320 | 51 | 278 | 1.0 | 8.0 | 0.00 | 0.13 | 0.13 | 68 | 1018.9 |
| 20260903134603 | 51 | 329 | 0.0 | 2.0 | 0.00 | 0.13 | 0.13 | 69 | 1019.0 |
| 20260903134058 | 51 | 296 | 1.0 | 5.0 | 0.00 | 0.13 | 0.13 | 68 | 1019.0 |
| 20260903133557 | 51 | 298 | 1.0 | 6.0 | 0.00 | 0.13 | 0.13 | 67 | 1019.0 |
| 20260903133546 | 51 | 283 | 0.0 | 6.0 | 0.00 | 0.14 | 0.13 | 67 | 1019.0 |
| 20260903132557 | 51 | 279 | 1.0 | 5.0 | 0.00 | 0.14 | 0.13 | 67 | 1019.0 |
| 20260903132055 | 51 | 281 | 1.0 | 5.0 | 0.00 | 0.14 | 0.13 | 66 | 1018.9 |
| 20260903131556 | 51 | 280 | 1.0 | 4.0 | 0.00 | 0.15 | 0.13 | 66 | 1018.9 |
| 20260903131051 | 52 | 284 | 1.0 | 5.0 | 0.00 | 0.15 | 0.13 | 66 | 1018.8 |
| 20260903130551 | 52 | 299 | 1.0 | 5.0 | 0.00 | 0.17 | 0.13 | 65 | 1018.9 |
| 20260903130045 | 51 | 247 | 1.0 | 6.0 | 0.00 | 0.17 | 0.13 | 65 | 1018.8 |
| 20260903125544 | 51 | 235 | 1.0 | 6.0 | 0.00 | 0.18 | 0.13 | 66 | 1018.8 |
| 20260903125033 | 51 | 254 | 1.0 | 5.0 | 0.00 | 0.18 | 0.13 | 68 | 1018.8 |
| 20260903125013 | 51 | 273 | 1.0 | 5.0 | 0.00 | 0.18 | 0.13 | 68 | 1018.8 |
| 20260903124027 | 51 | 276 | 1.0 | 6.0 | 0.00 | 0.18 | 0.13 | 68 | 1018.9 |
| 20260903123526 | 51 | 268 | 2.0 | 6.0 | 0.00 | 0.18 | 0.13 | 68 | 1018.8 |
| 20260903123027 | 51 | 277 | 1.0 | 5.0 | 0.00 | 0.18 | 0.13 | 69 | 1018.7 |
| 20260903122527 | 51 | 302 | 0.0 | 3.0 | 0.00 | 0.18 | 0.13 | 69 | 1018.8 |
| 20260903122247 | 51 | 301 | 1.0 | 5.0 | 0.00 | 0.18 | 0.13 | 68 | 1018.9 |
| 20260903121528 | 51 | 308 | 1.0 | 5.0 | 0.00 | 0.18 | 0.13 | 68 | 1018.9 |
| 20260903121025 | 51 | 33 | 1.0 | 5.0 | 0.00 | 0.18 | 0.13 | 69 | 1018.8 |
| 20260903120525 | 51 | 19 | 1.0 | 5.0 | 0.00 | 0.18 | 0.13 | 69 | 1018.8 |
| 20260903120025 | 51 | 328 | 1.0 | 5.0 | 0.00 | 0.18 | 0.13 | 69 | 1018.7 |
| 20260903115526 | 51 | 332 | 1.0 | 4.0 | 0.00 | 0.18 | 0.13 | 68 | 1018.8 |
| 20260903115025 | 51 | 344 | 0.0 | 4.0 | 0.00 | 0.18 | 0.13 | 68 | 1018.7 |
| 20260903114526 | 51 | 29 | 0.0 | 5.0 | 0.00 | 0.18 | 0.13 | 68 | 1018.7 |
| 20260903114025 | 51 | 69 | 1.0 | 5.0 | 0.00 | 0.18 | 0.13 | 68 | 1018.6 |
| 20260903113524 | 51 | 306 | 1.0 | 4.0 | 0.00 | 0.18 | 0.13 | 68 | 1018.6 |
| 20260903113025 | 51 | 16 | 1.0 | 5.0 | 0.00 | 0.18 | 0.13 | 69 | 1018.5 |
| 20260903112525 | 51 | 13 | 1.0 | 5.0 | 0.00 | 0.18 | 0.13 | 69 | 1018.5 |
| 20260903112025 | 51 | 315 | 0.0 | 4.0 | 0.00 | 0.18 | 0.13 | 69 | 1018.5 |
| 20260903111525 | 51 | 331 | 0.0 | 2.0 | 0.00 | 0.18 | 0.13 | 69 | 1018.5 |
| 20260903111025 | 51 | 287 | 0.0 | 4.0 | 0.00 | 0.18 | 0.13 | 69 | 1018.4 |
| 20260903110525 | 51 | 310 | 0.0 | 4.0 | 0.00 | 0.18 | 0.13 | 69 | 1018.4 |
| 20260903110025 | 51 | 25 | 0.0 | 2.0 | 0.00 | 0.18 | 0.13 | 68 | 1018.4 |
| 20260903105524 | 51 | 354 | 0.0 | 3.0 | 0.00 | 0.18 | 0.13 | 68 | 1018.4 |
| 20260903105020 | 51 | 12 | 0.0 | 3.0 | 0.00 | 0.18 | 0.13 | 68 | 1018.2 |
| 20260903104519 | 52 | 314 | 0.0 | 3.0 | 0.00 | 0.18 | 0.13 | 68 | 1018.1 |
| 20260903104019 | 52 | 318 | 1.0 | 5.0 | 0.00 | 0.18 | 0.13 | 68 | 1018.0 |
| 20260903103519 | 52 | 300 | 1.0 | 5.0 | 0.00 | 0.18 | 0.13 | 68 | 1018.0 |
| 20260903103019 | 52 | 337 | 1.0 | 5.0 | 0.00 | 0.18 | 0.13 | 69 | 1017.9 |
| 20260903102742 | 51 | 0 | 1.0 | 4.0 | 0.00 | 0.18 | 0.13 | 69 | 1017.8 |
| 20260903102018 | 51 | 270 | 1.0 | 5.0 | 0.00 | 0.18 | 0.13 | 69 | 1017.8 |
| 20260903101519 | 52 | 289 | 1.0 | 5.0 | 0.00 | 0.18 | 0.13 | 69 | 1017.6 |
| 20260903101019 | 52 | 299 | 1.0 | 5.0 | 0.00 | 0.18 | 0.13 | 69 | 1017.5 |
| 20260903100515 | 52 | 294 | 1.0 | 5.0 | 0.00 | 0.18 | 0.13 | 70 | 1017.6 |
| 20260903100233 | 52 | 284 | 1.0 | 4.0 | 0.00 | 0.18 | 0.13 | 70 | 1017.5 |
| 20260903095516 | 52 | 261 | 1.0 | 5.0 | 0.00 | 0.18 | 0.13 | 70 | 1017.4 |
| 20260903095017 | 52 | 306 | 1.0 | 5.0 | 0.00 | 0.18 | 0.13 | 70 | 1017.4 |
| 20260903095013 | 52 | 270 | 1.0 | 7.0 | 0.00 | 0.18 | 0.13 | 70 | 1017.3 |
| 20260903094241 | 52 | 287 | 2.0 | 7.0 | 0.00 | 0.18 | 0.13 | 70 | 1017.2 |
| 20260903093521 | 52 | 268 | 2.0 | 8.0 | 0.00 | 0.18 | 0.13 | 70 | 1017.2 |
| 20260903093015 | 52 | 308 | 2.0 | 8.0 | 0.00 | 0.18 | 0.13 | 70 | 1017.2 |
| 20260903092731 | 52 | 272 | 1.0 | 6.0 | 0.00 | 0.18 | 0.13 | 71 | 1017.1 |
| 20260903092010 | 52 | 275 | 1.0 | 6.0 | 0.00 | 0.18 | 0.13 | 71 | 1017.0 |
| 20260903091512 | 52 | 287 | 2.0 | 6.0 | 0.00 | 0.18 | 0.13 | 71 | 1016.9 |
| 20260903091224 | 52 | 280 | 1.0 | 6.0 | 0.00 | 0.18 | 0.13 | 70 | 1016.9 |
| 20260903090509 | 52 | 311 | 1.0 | 5.0 | 0.00 | 0.18 | 0.13 | 70 | 1016.8 |
| 20260903090228 | 52 | 312 | 1.0 | 5.0 | 0.00 | 0.18 | 0.13 | 70 | 1016.8 |
| 20260903085500 | 52 | 295 | 1.0 | 7.0 | 0.00 | 0.18 | 0.13 | 70 | 1016.7 |
| 20260903085000 | 52 | 270 | 1.0 | 7.0 | 0.00 | 0.18 | 0.13 | 70 | 1016.4 |
| 20260903084500 | 52 | 306 | 1.0 | 6.0 | 0.00 | 0.18 | 0.13 | 70 | 1016.4 |
| 20260903084000 | 52 | 294 | 2.0 | 6.0 | 0.00 | 0.18 | 0.13 | 70 | 1016.2 |
| 20260903083459 | 52 | 308 | 2.0 | 6.0 | 0.00 | 0.18 | 0.13 | 70 | 1016.2 |
| 20260903082959 | 52 | 315 | 2.0 | 6.0 | 0.00 | 0.18 | 0.13 | 70 | 1016.1 |
| 20260903082459 | 52 | 280 | 1.0 | 5.0 | 0.00 | 0.18 | 0.13 | 70 | 1016.1 |
| 20260903081959 | 53 | 344 | 1.0 | 6.0 | 0.00 | 0.18 | 0.13 | 69 | 1016.0 |
| 20260903081458 | 53 | 308 | 2.0 | 6.0 | 0.00 | 0.18 | 0.13 | 69 | 1016.0 |
| 20260903080958 | 53 | 299 | 1.0 | 6.0 | 0.00 | 0.18 | 0.13 | 69 | 1015.8 |
| 20260903080720 | 53 | 302 | 1.0 | 5.0 | 0.00 | 0.18 | 0.13 | 69 | 1015.9 |
| 20260903075958 | 53 | 289 | 2.0 | 8.0 | 0.00 | 0.18 | 0.13 | 68 | 1015.8 |
| 20260903075724 | 53 | 34 | 2.0 | 8.0 | 0.00 | 0.18 | 0.13 | 68 | 1015.7 |
| 20260903074958 | 53 | 301 | 2.0 | 10.0 | 0.00 | 0.18 | 0.13 | 67 | 1015.6 |
| 20260903074458 | 53 | 291 | 2.0 | 10.0 | 0.00 | 0.18 | 0.13 | 67 | 1015.6 |
| 20260903073957 | 54 | 11 | 2.0 | 7.0 | 0.00 | 0.18 | 0.13 | 67 | 1015.4 |
| 20260903073703 | 54 | 306 | 3.0 | 11.0 | 0.00 | 0.18 | 0.13 | 67 | 1015.3 |
| 20260903072929 | 54 | 294 | 2.0 | 11.0 | 0.00 | 0.18 | 0.13 | 66 | 1015.3 |
| 20260903072657 | 54 | 308 | 2.0 | 8.0 | 0.00 | 0.18 | 0.13 | 66 | 1015.3 |
| 20260903071923 | 55 | 296 | 2.0 | 8.0 | 0.00 | 0.18 | 0.13 | 65 | 1015.2 |
| 20260903071631 | 55 | 295 | 3.0 | 8.0 | 0.00 | 0.18 | 0.13 | 64 | 1015.2 |
| 20260903070906 | 55 | 306 | 3.0 | 8.0 | 0.00 | 0.18 | 0.13 | 64 | 1015.0 |
| 20260903070402 | 56 | 267 | 3.0 | 10.0 | 0.00 | 0.18 | 0.13 | 62 | 1015.0 |
| 20260903070118 | 56 | 353 | 3.0 | 10.0 | 0.00 | 0.18 | 0.13 | 61 | 1015.0 |
| 20260903065347 | 57 | 346 | 3.0 | 10.0 | 0.00 | 0.18 | 0.13 | 60 | 1015.0 |
| 20260903065103 | 58 | 39 | 3.0 | 10.0 | 0.00 | 0.18 | 0.13 | 59 | 1014.8 |
| 20260903064337 | 58 | 22 | 3.0 | 10.0 | 0.00 | 0.18 | 0.13 | 59 | 1014.8 |
| 20260903063830 | 58 | 272 | 4.0 | 10.0 | 0.00 | 0.18 | 0.13 | 60 | 1014.7 |
| 20260903063325 | 58 | 278 | 4.0 | 10.0 | 0.00 | 0.18 | 0.13 | 59 | 1014.7 |
| 20260903062818 | 58 | 325 | 4.0 | 10.0 | 0.00 | 0.18 | 0.13 | 58 | 1014.7 |
| 20260903062311 | 58 | 39 | 4.0 | 10.0 | 0.00 | 0.18 | 0.13 | 58 | 1014.6 |
| 20260903061805 | 59 | 24 | 4.0 | 8.0 | 0.00 | 0.18 | 0.13 | 58 | 1014.4 |
| 20260903061300 | 59 | 31 | 3.0 | 9.0 | 0.00 | 0.18 | 0.13 | 57 | 1014.4 |
| 20260903060755 | 59 | 310 | 3.0 | 11.0 | 0.00 | 0.18 | 0.13 | 57 | 1014.3 |